Falfurrias, TX

5:41 PM CDT on July 23, 2019 (GMT -0500)
Falfurrias

Weather History for KBKS - May, 2019

Change the Weather History Date:

Saturday, May 18, 2019

  Actual Average (KNQI) Record (KNQI)
Temperature  
Mean Temperature 86 °F -  
Max Temperature 95 °F 86 °F 99 °F (2018)
Min Temperature 78 °F 68 °F 61 °F (2007)
Cooling Degree Days 22    
Growing Degree Days 36 (Base 50)    
Moisture  
Dew Point 75 °F    
Average Humidity 73    
Maximum Humidity 86    
Minimum Humidity 49    
Precipitation  
Precipitation 0.00 in - - ()
Sea Level Pressure  
Sea Level Pressure 29.67 in    
Wind  
Wind Speed 11 mph (SE)    
Max Wind Speed 17 mph    
Max Gust Speed 23 mph    
Visibility 8 miles    
Events      
Averages and records for this station are not official NWS values.
T = Trace of Precipitation, MM = Missing Value Source: NWS Daily Summary

Daily Weather History Graph

Daily Weather History Graph

Search for Another Location

Airport or City:

Astronomy

May. 18, 2019 Rise Set
Actual Time 6:42 AM CDT 8:15 PM CDT
Civil Twilight 6:17 AM CDT 8:40 PM CDT
Nautical Twilight 5:46 AM CDT 9:11 PM CDT
Astronomical Twilight 5:15 AM CDT 9:43 PM CDT
Moon 8:16 PM CDT (5/18) 6:42 AM CDT (5/18)
Length of Visible Light 14h 23m
Length of Day
13h 32m
Full, 100% of the Moon is Illuminated
May 18
Full
May 18
Full
May 26
Last Quarter
Jun 3
New
Jun 10
First Quarter

Hourly Weather History & Observations

Time (CDT) Temp. Heat Index Dew Point Humidity Pressure Visibility Wind Dir Wind Speed Gust Speed Precip Events Conditions
12:15 AM 80.8 °F 86.1 °F 74.5 °F 81% 29.75 in 10.0 mi SE 11.5 mph 16.1 mph N/A   Overcast
12:35 AM 81.0 °F 86.5 °F 74.5 °F 81% 29.75 in 10.0 mi SE 9.2 mph - N/A   Overcast
12:55 AM 80.8 °F 86.1 °F 74.3 °F 81% 29.75 in 10.0 mi SE 10.4 mph - N/A   Overcast
1:15 AM 81.0 °F 86.3 °F 74.3 °F 80% 29.74 in 10.0 mi SE 11.5 mph 18.4 mph N/A   Overcast
1:35 AM 80.8 °F 86.1 °F 74.3 °F 81% 29.73 in 10.0 mi SE 11.5 mph 17.3 mph N/A   Overcast
1:55 AM 80.8 °F 86.1 °F 74.3 °F 81% 29.72 in 10.0 mi SE 15.0 mph 19.6 mph N/A   Overcast
2:15 AM 80.6 °F 85.7 °F 74.3 °F 81% 29.72 in 10.0 mi SE 11.5 mph 21.9 mph N/A   Overcast
2:35 AM 80.2 °F 84.9 °F 73.9 °F 81% 29.71 in 10.0 mi SE 11.5 mph 17.3 mph N/A   Mostly Cloudy
2:55 AM 80.1 °F 84.5 °F 73.9 °F 81% 29.71 in 10.0 mi SE 11.5 mph 19.6 mph N/A   Mostly Cloudy
3:15 AM 80.1 °F 84.6 °F 74.3 °F 82% 29.70 in 10.0 mi SE 11.5 mph - N/A   Overcast
3:35 AM 79.9 °F - 74.3 °F 83% 29.70 in 10.0 mi SE 13.8 mph 19.6 mph N/A   Overcast
3:55 AM 79.7 °F - 73.9 °F 82% 29.69 in 10.0 mi SE 12.7 mph - N/A   Overcast
4:15 AM 79.7 °F - 74.3 °F 83% 29.69 in 10.0 mi SE 10.4 mph - N/A   Overcast
4:35 AM 79.7 °F - 73.9 °F 82% 29.69 in 10.0 mi SE 11.5 mph 17.3 mph N/A   Overcast
4:55 AM 79.7 °F - 73.9 °F 82% 29.68 in 10.0 mi SE 12.7 mph 17.3 mph N/A   Overcast
5:15 AM 79.7 °F - 74.1 °F 83% 29.68 in 10.0 mi SE 11.5 mph - N/A   Overcast
5:35 AM 79.3 °F - 73.9 °F 83% 29.69 in 10.0 mi SE 8.1 mph 16.1 mph N/A   Overcast
5:55 AM 78.8 °F - 73.9 °F 85% 29.69 in 7.0 mi SE 9.2 mph - N/A   Overcast
6:15 AM 79.0 °F - 73.9 °F 84% 29.69 in 10.0 mi SE 8.1 mph - N/A   Overcast
6:35 AM 79.0 °F - 73.9 °F 84% 29.69 in 7.0 mi ESE 6.9 mph - N/A   Overcast
6:50 AM 78.8 °F - 73.9 °F 85% 29.69 in 7.0 mi SE 6.9 mph - N/A   Overcast
7:15 AM 78.8 °F - 73.9 °F 85% 29.69 in 7.0 mi SE 4.6 mph - N/A   Overcast
7:35 AM 79.2 °F - 74.3 °F 85% 29.70 in 7.0 mi SE 4.6 mph - N/A   Overcast
7:55 AM 79.7 °F - 74.3 °F 83% 29.71 in 7.0 mi SE 5.8 mph - N/A   Overcast
8:15 AM 80.2 °F 85.0 °F 74.3 °F 82% 29.71 in 7.0 mi SE 6.9 mph - N/A   Overcast
8:35 AM 80.6 °F 85.7 °F 74.3 °F 81% 29.71 in 7.0 mi SSE 9.2 mph - N/A   Overcast
8:55 AM 81.1 °F 86.8 °F 74.5 °F 80% 29.72 in 7.0 mi SSE 9.2 mph - N/A   Overcast
9:15 AM 81.5 °F 87.4 °F 74.3 °F 79% 29.72 in 10.0 mi SSE 11.5 mph - N/A   Overcast
9:35 AM 81.9 °F 88.0 °F 74.3 °F 78% 29.72 in 10.0 mi SSE 12.7 mph 16.1 mph N/A   Overcast
9:55 AM 82.4 °F 88.7 °F 74.3 °F 76% 29.71 in 10.0 mi SSE 9.2 mph - N/A   Overcast
10:15 AM 83.3 °F 90.2 °F 74.3 °F 74% 29.71 in 10.0 mi SSE 12.7 mph - N/A   Overcast
10:35 AM 83.8 °F 90.8 °F 74.1 °F 72% 29.70 in 10.0 mi SSE 10.4 mph 17.3 mph N/A   Overcast
10:55 AM 84.4 °F 91.7 °F 74.1 °F 71% 29.70 in 7.0 mi SSE 15.0 mph - N/A   Overcast
11:15 AM 85.5 °F 93.4 °F 74.3 °F 69% 29.68 in 7.0 mi SSE 12.7 mph - N/A   Overcast
11:35 AM 85.1 °F 92.6 °F 73.8 °F 69% 29.68 in 7.0 mi SSE 13.8 mph 19.6 mph N/A   Overcast
11:55 AM 85.8 °F 94.2 °F 74.5 °F 69% 29.68 in 7.0 mi SSE 11.5 mph - N/A   Overcast
12:15 PM 87.8 °F 96.6 °F 74.3 °F 64% 29.68 in 7.0 mi SSE 17.3 mph - N/A   Overcast
12:35 PM 87.3 °F 95.8 °F 74.3 °F 65% 29.68 in 7.0 mi SSE 10.4 mph - N/A   Overcast
12:55 PM 88.0 °F 97.5 °F 74.7 °F 65% 29.68 in 7.0 mi South 12.7 mph - N/A   Mostly Cloudy
1:15 PM 90.5 °F 100.9 °F 74.8 °F 60% 29.67 in 7.0 mi South 16.1 mph 21.9 mph N/A   Mostly Cloudy
1:35 PM 91.0 °F 102.2 °F 75.2 °F 60% 29.67 in 7.0 mi SSE 15.0 mph - N/A   Scattered Clouds
1:55 PM 91.6 °F 102.3 °F 74.8 °F 58% 29.64 in 7.0 mi SE 15.0 mph 23.0 mph N/A   Scattered Clouds
2:15 PM 93.0 °F 103.9 °F 74.8 °F 55% 29.64 in 7.0 mi South 15.0 mph 21.9 mph N/A   Scattered Clouds
2:35 PM 93.4 °F 103.4 °F 73.8 °F 53% 29.63 in 10.0 mi SSE 13.8 mph 17.3 mph N/A   Scattered Clouds
2:55 PM 94.1 °F 103.1 °F 72.7 °F 50% 29.63 in 7.0 mi South 13.8 mph 18.4 mph N/A   Scattered Clouds
3:15 PM 94.3 °F 104.2 °F 73.6 °F 51% 29.63 in 10.0 mi SSE 12.7 mph 16.1 mph N/A   Scattered Clouds
3:35 PM 93.9 °F 103.4 °F 73.0 °F 51% 29.61 in 7.0 mi South 11.5 mph - N/A   Scattered Clouds
3:55 PM 95.2 °F 104.9 °F 73.2 °F 49% 29.61 in 7.0 mi South 11.5 mph 17.3 mph N/A   Scattered Clouds
4:15 PM 94.5 °F 103.9 °F 73.0 °F 50% 29.60 in 7.0 mi SSE 9.2 mph - N/A   Scattered Clouds
4:35 PM 95.2 °F 104.9 °F 73.4 °F 49% 29.59 in 7.0 mi SE 9.2 mph - N/A   Scattered Clouds
4:55 PM 95.2 °F 104.9 °F 73.4 °F 49% 29.59 in 7.0 mi SE 11.5 mph - N/A   Scattered Clouds
5:15 PM 94.5 °F 103.9 °F 73.4 °F 50% 29.59 in 7.0 mi SSE 9.2 mph - N/A   Clear
5:35 PM 94.6 °F 104.4 °F 73.4 °F 50% 29.58 in 7.0 mi SSE 8.1 mph - N/A   Clear
5:55 PM 94.6 °F 103.7 °F 72.9 °F 49% 29.58 in 7.0 mi SSE 6.9 mph - N/A   Clear
6:15 PM 94.6 °F 104.4 °F 73.4 °F 50% 29.58 in 7.0 mi SE 9.2 mph - N/A   Clear
6:35 PM 91.9 °F 105.9 °F 77.0 °F 62% 29.58 in 7.0 mi East 11.5 mph 17.3 mph N/A   Scattered Clouds
6:55 PM 90.5 °F 104.0 °F 77.2 °F 65% 29.59 in 7.0 mi ESE 12.7 mph 18.4 mph N/A   Scattered Clouds
7:15 PM 88.9 °F 101.5 °F 77.0 °F 68% 29.59 in 7.0 mi ESE 11.5 mph 17.3 mph N/A   Scattered Clouds
7:35 PM 87.4 °F 99.2 °F 77.0 °F 71% 29.60 in 7.0 mi ESE 12.7 mph 17.3 mph N/A   Clear
7:55 PM 86.5 °F 97.8 °F 76.8 °F 73% 29.60 in 7.0 mi ESE 10.4 mph - N/A   Clear
8:15 PM 85.3 °F 95.4 °F 76.6 °F 75% 29.61 in 7.0 mi ESE 11.5 mph 17.3 mph N/A   Clear
8:35 PM 84.2 °F 93.8 °F 76.6 °F 78% 29.62 in 7.0 mi ESE 11.5 mph 19.6 mph N/A   Clear
8:55 PM 83.3 °F 91.8 °F 76.3 °F 79% 29.64 in 7.0 mi ESE 8.1 mph 16.1 mph N/A   Clear
9:15 PM 82.4 °F 90.3 °F 76.3 °F 82% 29.65 in 7.0 mi ESE 9.2 mph - N/A   Clear
9:35 PM 81.5 °F 88.5 °F 76.1 °F 84% 29.66 in 7.0 mi SE 9.2 mph - N/A   Clear
9:55 PM 81.5 °F 88.5 °F 76.1 °F 84% 29.67 in 7.0 mi SE 10.4 mph - N/A   Clear
10:15 PM 80.8 °F 86.7 °F 75.6 °F 84% 29.68 in 7.0 mi SE 8.1 mph - N/A   Clear
10:35 PM 80.6 °F 86.2 °F 75.2 °F 84% 29.70 in 7.0 mi SE 6.9 mph - N/A   Clear
10:55 PM 80.2 °F 85.5 °F 75.2 °F 85% 29.70 in 7.0 mi ESE 5.8 mph - N/A   Clear
11:15 PM 79.7 °F - 75.2 °F 86% 29.72 in 5.0 mi ESE 5.8 mph - N/A   Clear
11:35 PM 80.1 °F 85.1 °F 75.2 °F 85% 29.72 in 7.0 mi ESE 6.9 mph - N/A   Mostly Cloudy
11:55 PM 80.4 °F 85.8 °F 75.2 °F 84% 29.72 in 7.0 mi SE 6.9 mph - N/A   Overcast